Weather History for Kiana, AK

Change the Weather History Date:

Friday, July 12, 2013

  Actual Average (PASK) Record (PASK)
Temperature  
Mean Temperature 68 °F -  
Max Temperature 66 °F 61 °F 75 °F (2012)
Min Temperature 59 °F 50 °F 42 °F (2000)
Cooling Degree Days 4    
Growing Degree Days 18 (Base 50)    
Moisture  
Dew Point 45 °F    
Average Humidity 45    
Maximum Humidity 75    
Minimum Humidity 22    
Precipitation  
Precipitation 0.00 in - - ()
Sea Level Pressure  
Sea Level Pressure 30.19 in    
Wind  
Wind Speed 3 mph (East)    
Max Wind Speed 10 mph    
Max Gust Speed -    
Visibility 10 miles    
Events      
Averages and records for this station are not official NWS values.
T = Trace of Precipitation, MM = Missing Value Source: NWS Daily Summary

Daily Weather History Graph

Daily Weather History Graph

Search for Another Location

Airport:

Trip Planner

Search our weather history database for the weather conditions in past years. The results will help you decide how hot, cold, wet, or windy it might be!

Date:

Astronomy

Jul. 12, 2013 Rise Set
Actual Time 3:25 AM AKDT 2:01 AM AKDT
Civil Twilight Sun does not rise Sun does not rise
Nautical Twilight Sun does not rise Sun does not rise
Astronomical Twilight Sun does not rise Sun does not rise
Moon 11:31 AM AKDT (7/12) 12:29 AM AKDT (7/12)
Length of Visible Light 24h 00m
Length of Day
22h 35m
Waxing Crescent, 18% of the Moon is Illuminated
Jul 12
Waxing Crescent
Jul 15
First Quarter
Jul 22
Full
Jul 29
Last Quarter
Aug 6
New

Hourly Weather History & Observations

Time (AKDT) Temp. Dew Point Humidity Pressure Visibility Wind Dir Wind Speed Gust Speed Precip Events Conditions
12:01 AM 71.1 °F 46.0 °F 41% 30.18 in 10.0 mi Calm Calm - N/A   Clear
1:01 AM 66.9 °F 46.0 °F 47% 30.19 in 10.0 mi Calm Calm - N/A   Scattered Clouds
2:01 AM 64.0 °F 52.0 °F 65% 30.20 in 10.0 mi Calm Calm - N/A   Mostly Cloudy
3:01 AM 64.0 °F 48.0 °F 56% 30.21 in 10.0 mi Calm Calm - N/A   Mostly Cloudy
4:01 AM 60.1 °F 48.0 °F 64% 30.21 in 10.0 mi NNW 3.5 mph - N/A   Overcast
5:01 AM 61.0 °F 48.9 °F 64% 30.21 in 10.0 mi East 4.6 mph - N/A   Overcast
6:01 AM 60.1 °F 50.0 °F 69% 30.22 in 10.0 mi ENE 5.8 mph - N/A   Scattered Clouds
7:01 AM 59.0 °F 51.1 °F 75% 30.22 in 10.0 mi Calm Calm - N/A   Clear
8:01 AM 61.0 °F 51.1 °F 70% 30.22 in 10.0 mi East 5.8 mph - N/A   Clear
9:01 AM 64.0 °F 53.1 °F 67% 30.22 in 10.0 mi ENE 3.5 mph - N/A   Clear
10:01 AM 68.0 °F 50.0 °F 52% 30.22 in 10.0 mi East 5.8 mph - N/A   Clear
11:01 AM 71.1 °F 48.9 °F 45% 30.22 in 10.0 mi East 8.1 mph - N/A   Clear
12:01 PM 72.0 °F 45.0 °F 38% 30.22 in 10.0 mi East 8.1 mph - N/A   Clear
1:01 PM 73.0 °F 44.1 °F 35% 30.21 in 10.0 mi Variable 6.9 mph - N/A   Clear
2:01 PM 75.0 °F 43.0 °F 32% 30.20 in 8.0 mi East 10.4 mph - N/A   Clear
3:01 PM 75.0 °F 44.1 °F 33% 30.18 in 10.0 mi East 6.9 mph - N/A   Clear
4:01 PM 75.9 °F 45.0 °F 33% 30.17 in 10.0 mi East 6.9 mph - N/A   Clear
5:01 PM 78.1 °F 43.0 °F 29% 30.16 in 10.0 mi ENE 9.2 mph - N/A   Clear
6:01 PM 78.1 °F 42.1 °F 28% 30.15 in 7.0 mi ESE 5.8 mph - N/A   Clear
7:01 PM 78.1 °F 36.0 °F 22% 30.14 in 10.0 mi ENE 6.9 mph - N/A   Clear
8:01 PM 77.0 °F 35.1 °F 22% 30.13 in 10.0 mi Variable 5.8 mph - N/A   Clear
9:01 PM 75.9 °F 41.0 °F 29% 30.13 in 10.0 mi SE 4.6 mph - N/A   Clear
10:01 PM 75.9 °F 37.0 °F 24% 30.12 in 9.0 mi Calm Calm - N/A   Clear
11:01 PM 75.0 °F 43.0 °F 32% 30.12 in 10.0 mi West 3.5 mph - N/A   Clear